Location: Augirein
(42.9320°N, 0.9181°E)
Time: 17:21:28
(UTC+00:00)

Cosmos 990 Rocket - Pass Details

Date: 20 June 2021
Orbit: 747 x 768 km, 74.0° (Epoch: 03 August)

Event Time Altitude Azimuth Distance (km) Brightness Sun altitude
Rises 00:13:16 0° 343° (NNW) 3,223 8.4 -23.5°
Reaches altitude 10° 00:15:43 10° 349° (NNW) 2,290 7.5 -23.5°
Maximum altitude 00:20:47 53° 66° (ENE) 921 4.5 -23.4°
Enters shadow 00:22:32 37° 121° (ESE) 1,166 4.7 -23.4°
